Hourly Data Report for July 14, 2018

TORONTO CITY
ONTARIO
Current Station Operator: ECCC - MSC

43°40'00.000" N
79°24'00.000" W
112.50 m
6158355
71508
XTO

Download Data

Hourly Data (July 2018)
Hourly Data Report for July 14, 2018
TIME
LST
Temp Definition
°C
Dew Point Definition
°C
Rel Hum Definition
%
Precip. Amount Definition
mm

Wind Dir Definition
10's deg

Wind Spd Definition
km/h
Visibility Definition
km
Stn Press Definition
kPa
Hmdx Definition


Wind Chill Definition


Weather Definition


00:00 24.6 16.5 61 0.0 LegendMM LegendMM   100.46 30   LegendNANA
01:00 23.8 16.8 65 0.0 LegendMM LegendMM   100.41 29   LegendNANA
02:00 23.6 15.5 61 0.0 LegendMM LegendMM   100.36 28   LegendNANA
03:00 23.3 13.9 56 0.0 LegendMM LegendMM   100.33 27   LegendNANA
04:00 23.4 13.4 53 0.0 LegendMM LegendMM   100.38 26   LegendNANA
05:00 23.3 13.0 52 0.0 LegendMM LegendMM   100.39 26   LegendNANA
06:00 23.2 13.1 53 0.0 LegendMM LegendMM   100.43 26   LegendNANA
07:00 23.7 13.2 52 0.0 LegendMM LegendMM   100.44 27   LegendNANA
08:00 25.2 12.9 46 0.0 LegendMM LegendMM   100.44 28   LegendNANA
09:00 26.6 15.2 50 0.0 LegendMM LegendMM   100.40 31   LegendNANA
10:00 27.7 15.1 46 0.0 LegendMM LegendMM   100.39 32   LegendNANA
11:00 27.5 15.9 49 0.0 LegendMM LegendMM   100.43 32   LegendNANA
12:00 26.4 17.1 57 0.0 LegendMM LegendMM   100.42 32   LegendNANA
13:00
14:00
15:00
16:00 26.5 17.0 56 0.0 LegendMM LegendMM   100.36 32   LegendNANA
17:00 25.6 18.4 64 0.0 LegendMM LegendMM   100.31 32   LegendNANA
18:00 25.3 18.8 67 0.0 LegendMM LegendMM   100.25 32   LegendNANA
19:00 24.8 18.8 69 0.0 LegendMM LegendMM   100.22 31   LegendNANA
20:00 24.7 18.5 68 0.0 LegendMM LegendMM   100.16 31   LegendNANA
21:00 24.1 17.9 68 0.0 LegendMM LegendMM   100.23 30   LegendNANA
22:00 23.4 17.4 69 0.0 LegendMM LegendMM   100.26 29   LegendNANA
23:00 23.0 17.5 71 0.0 LegendMM LegendMM   100.26 29   LegendNANA

Notes on Data Quality.

Legend

  • E = Estimated
  • M = Missing
  • NA = Not Available*
  • [empty] = Indicates an unobserved value
Date modified: